Regional Weather Roundup
Issued by NWS Sterling, VA

Home | Current Version | Previous Version | Graphics & Text | Print | Product List | Glossary On
Versions: 1 2 3 4 5 6 7 8 9 10 11 12 13 14 15 16 17 18 19 20 21 22 23 24 25 26 27 28
000
ASUS41 KLWX 241011
RWRLWX

REGIONAL WEATHER ROUNDUP
NATIONAL WEATHER SERVICE BALTIMORE MD/WASHINGTON DC
600 AM EDT THU MAY 24 2018

Note: "FAIR" indicates few or no clouds below 12,000 feet
with no significant weather and/or obstructions to visibility.
 TC=TEMPERATURE CELSIUS

 * =Non NWS site. Station does not report precipitation (e.g. rain,
    snow, etc.), thunder, or fog.

DCZ001-MDZ009-015-VAZ040>042-051-053>054-241100-
WASHINGTON METRO

CITY           SKY/WX    TMP DP  RH WIND       PRES   REMARKS
WASHINGTON NAT FAIR      64  56  75 N7        30.14R
DULLES         FAIR      61  56  83 N3        30.15R
ANDREWS AFB    FAIR      62  55  78 NW6       30.13R
FT BELVOIR     FAIR      55  54  97 CALM      30.14R
QUANTICO       FAIR      62  57  83 NW5       30.15R
COLLEGE PARK*  FAIR      56  55  97 CALM      30.13R
LEESBURG*      FAIR      63  57  82 N7        30.16R
MANASSAS*      FAIR      54  53  97 CALM      30.16R
GAITHERSBURG*  FAIR      55  54  96 CALM      30.16R

$$

MDZ006>007-011-014-241100-
BALTIMORE METRO

CITY           SKY/WX    TMP DP  RH WIND       PRES   REMARKS
BWI AIRPORT    FAIR      62  54  74 NW6       30.12R
MD SCIENCE CTR   N/A     69  53  56 MISG      30.13R
MARTIN STATE   PTCLDY    61  57  88 NW5       30.13R
ANNAPOLIS        N/A    N/A N/A N/A MISG      30.12R
FORT MEADE*    FAIR      54  52  94 CALM      30.16R

$$

MDZ012-015-019>023-241100-
MARYLAND EASTERN SHORE

CITY           SKY/WX    TMP DP  RH WIND       PRES   REMARKS
OCEAN CITY     FAIR      62  58  86 NW7       30.10R
SALISBURY      FAIR      59  58  96 CALM      30.10R
BAY BRIDGE AP* FAIR      64  59  82 NW6       30.12R
CAMBRIDGE*     CLEAR     59  59 100 CALM      30.11R
EASTON*        CLEAR     63  59  88 CALM      30.15R

$$

MDZ017>025-241100-
SOUTHERN MARYLAND

CITY           SKY/WX    TMP DP  RH WIND       PRES   REMARKS
PATUXENT RIVER FAIR      67  58  72 NW9       30.11R
ST INIGOES     FAIR      64  58  80 W3        30.11R
LEONARDTOWN*   FAIR      59  55  88 CALM      30.14R

$$

MDZ003>005-241100-
NORTH CENTRAL MARYLAND

CITY           SKY/WX    TMP DP  RH WIND       PRES   REMARKS
FREDERICK*     FAIR      54  54 100 CALM      30.18R
HAGERSTOWN APT FAIR      57  53  86 CALM      30.18R
WESTMINSTER*   FAIR      61  55  82 CALM      30.16R

$$

MDZ501>502-241100-
WESTERN MARYLAND

CITY           SKY/WX    TMP DP  RH WIND       PRES   REMARKS
OAKLAND*       FAIR      54  46  76 CALM      30.25R
CUMBERLAND*    MOCLDY    54  54 100 N3        30.25R VSB 1/2

$$

VAZ025>031-241100-
SHENANDOAH VALLEY

CITY           SKY/WX    TMP DP  RH WIND       PRES   REMARKS
WINCHESTER*    FAIR      54  52  94 CALM      30.20R
FRONT ROYAL*   FAIR     N/A N/A N/A S7        30.18R
LURAY*         FAIR      54  54 100 CALM      30.20R
NEW MARKET*    FAIR      52  51  96 CALM      30.19R
STAUNTON*      FAIR      53  52  97 CALM      30.23R FOG
WAYNESBORO*    CLOUDY    59  58  97 CALM      30.21R

$$

WVZ021-048>050-054>055-241100-
EASTERN WEST VIRGINIA PANHANDLE

CITY           SKY/WX    TMP DP  RH WIND       PRES   REMARKS
MARTINSBURG    FAIR      53  52  96 CALM      30.17R
PETERSBURG*    FOG       51  51  99 CALM      30.22R VSB 1/4

$$

VAZ036>039-050-241100-
CENTRAL FOOTHILLS

CITY           SKY/WX    TMP DP  RH WIND       PRES   REMARKS
CHARLOTTESVILL FAIR      59  56  89 S3        30.16R
CULPEPER*      FAIR      56  54  91 CALM      30.17R
ORANGE*        FAIR      55  54  94 CALM      30.16R
GORDONSVILLE*  FAIR      55  55 100 CALM      30.15R
WARRENTON*     FOG       53  51  91 CALM      30.15R VSB 1/2

$$

VAZ055>057-241100-
NORTH AND CENTRAL PIEDMONT

CITY           SKY/WX    TMP DP  RH WIND       PRES   REMARKS
FREDERICKSBRG* FAIR      59  57  91 CALM      30.14R
STAFFORD*      FAIR      55  55 100 CALM      30.18R

$$

NCZ024-NYZ072-PAZ021-071-VAZ022-071-241100-
OTHER REGIONAL OBSERVATIONS

CITY           SKY/WX    TMP DP  RH WIND       PRES   REMARKS
NEW YORK CITY  FAIR      64  52  64 W6        30.10R
PHILADELPHIA   FAIR      64  53  67 NW7       30.11R
PITTSBURGH     FAIR      52  49  89 CALM      30.21R
ROANOKE        CLOUDY    67  55  65 N7        30.21R
RICHMOND       FAIR      62  57  83 N6          N/A
RALEIGH        MOCLDY    69  67  93 NE3       30.12R

$$

ANZ530>537-241100-
MARINE OBSERVATIONS

STATION/POSITION TIME  TEMP    WIND        PRES
                       AIR SEA DIR/SP/G
                 (UTC) (F)     (DEG/KT/KT) (MB)
THOMAS PT LIGHT  1000   65 69  330/  8/  9 1020.9R
BALT KEY BRIDGE  0942   67     300/  7/  7 1019.8R
COVE POINT       0942   69     340/  9/ 11 1020.1R
LEWISETTA        0942   67 75  320/  6/  8 1019.7R
SOLOMONS ISLAND  0942   65 71  300/  3/  5 1019.5R
PINEY POINT      0942          330/ 10/ 12   N/A

$$





USA.gov is the U.S. government's official web portal to all federal, state and local government web resources and services.